Погода в Политотдельском

Россия / Белгородская область     50°28′25″N   36°24′34″E
темп.,
°C
ветер,
м/с
пор.,
м/с
влажн.,
%
обл.,
%
осадки,
мм/ч
давл.,
гПа
погр.,
м
11 мая, вт
вт1100:00+9с91879100 0.3 1017738
03:00+9ссв8168398 0.3 1016557
06:00+10с81783100 0.0 1015573
09:00+13ссв91580100 0.0 1015961
12:00+10всв71182100 0.3 10181081
15:00+13всв8115613 0.3 10181625
18:00+11всв813685 0.0 10191613
21:00+8всв8147962 0.1 1019968
12 мая, ср
ср1200:00+8в91486100 0.3 10191048
03:00+8в91585100 0.4 10191099
06:00+8всв81585100 0.0 1019926
09:00+9в91586100 0.3 10191386
12:00+10вюв71385100 1.6 10181454
15:00+9в4109389 5.4 1017688
18:00+11вюв598280 1.0 1015566
21:00+9юв51289100 2.3 1015528
13 мая, чт
чт1300:00+8юв5129546 0.6 1015345
03:00+7юв399768 0.6 1015209
06:00+7юв269797 0.0 1016182
09:00+12ююв358570 0.0 1015568
12:00+15ююв467126 0.3 10151174
15:00+18ю465932 0.4 10141537
18:00+18ююв356948 0.1 1014719
21:00+13в3485100 0.1 101454
14 мая, пт
пт1400:00+14в3882100 0.0 1014179
03:00+12в489295 0.1 1013143
06:00+13вюв4119199 0.0 1013244
09:00+19юв61279100 0.1 1012562
12:00+23ююв71064100 0.0 10111218
15:00+20вюв4779100 0.4 1010117
18:00+19вюв4108599 1.9 1010261
21:00+18вюв398847 2.7 1009154
15 мая, сб
сб1500:00+16ююз379345 1.3 1009140
03:00+14зюз2289100 2.4 100926
06:00+14юз228891 0.0 101042
09:00+18юз457747 0.0 1011558
12:00+21юз456413 0.2 10121333
15:00+21зюз465577 0.3 10121786
18:00+19з4771100 0.1 1012234
21:00+15зсз118333 0.1 101311